282  
ASUS44 KMEG 240500  
RWRMEG  
MEMPHIS CWA HOURLY WEATHER ROUNDUP  
NATIONAL WEATHER SERVICE MEMPHIS TN  
1200 AM CDT SUN SEP 24 2017  
   
..WEST TENNESSEE
 
 
 
CITY SKY/WX TMP DP RH WIND PRES REMARKS
 
MEMPHIS INTL CLEAR 80 69 69 SE5 29.98S  
NWS MEMPHIS N/A 74 N/A N/A MISG N/A  
JACKSON CLEAR 70 70 100 CALM 30.00S  
DYERSBURG CLEAR 72 70 93 CALM 30.00S  
 
   
..EASTERN ARKANSAS
 
 
 
CITY SKY/WX TMP DP RH WIND PRES REMARKS
 
JONESBORO CLEAR 73 70 90 NE3 29.97F  
WEST MEMPHIS CLEAR 72 71 97 CALM 29.96S  
BATESVILLE CLEAR 72 68 87 N3 29.99S  
NEWPORT CLEAR 72 68 87 CALM 29.98S  
BLYTHEVILLE CLEAR 73 70 90 E3 29.99S  
SEARCY CLEAR 72 71 97 N3 29.98S  
STUTTGART CLEAR 77 70 79 CALM 29.96S  
PINE BLUFF CLEAR 73 68 84 CALM 29.95S  
MONTICELLO CLEAR 76 69 79 CALM 29.95F  
 
   
..NORTH MISSISSIPPI
 
 
 
CITY SKY/WX TMP DP RH WIND PRES REMARKS
 
TUPELO CLEAR 73 68 84 CALM 29.98F  
TUNICA N/A 72 70 94 CALM 29.98S  
CLARKSDALE N/A 75 75 100 SE6 29.97S  
GREENWOOD CLEAR 71 70 96 CALM 29.96S  
COLUMBUS CLEAR 69 69 100 CALM 29.97F  
STARKVILLE CLEAR 66 64 94 CALM 30.00R FOG  
 
   
..SOUTHEAST MISSOURI
 
 
 
CITY SKY/WX TMP DP RH WIND PRES REMARKS
 
MALDEN CLEAR 77 68 73 CALM 30.00F  
WEST PLAINS CLEAR 66 63 90 CALM 30.04S  
POPLAR BLUFF CLEAR 70 67 90 N3 29.99S  
CAPE GIRARDEAU CLEAR 71 66 84 NE3 30.00S  
 
   
..NORTHWEST ALABAMA
 
 
 
CITY SKY/WX TMP DP RH WIND PRES REMARKS
 
MUSCLE SHOALS CLEAR 71 65 81 CALM 30.02F  
 
   
..MIDDLE TENNESSEE
 
 
 
CITY SKY/WX TMP DP RH WIND PRES REMARKS
 
NASHVILLE CLEAR 73 69 87 CALM 30.03S  
CLARKSVILLE CLEAR 70 66 87 CALM 30.02S  
 
   
..WESTERN KENTUCKY
 
 
 
CITY SKY/WX TMP DP RH WIND PRES REMARKS
 
PADUCAH CLEAR 72 67 84 CALM 30.00S  
 
   
..CENTRAL ARKANSAS
 
 
 
CITY SKY/WX TMP DP RH WIND PRES REMARKS
 
LITTLE ROCK CLEAR 74 72 93 CALM 29.95F  
 
SKY/WX REPORTED AS FAIR MEANS FEW OR NO CLOUDS BELOW  
12 THOUSAND FEET.  
 
 
 
CLICK HERE TO GO TO PREVIOUS BULLETINS.

The Nexlab TN Page
The Nexlab MS Page
The Nexlab AR Page Main Text Page